Time,TemperatureF,DewpointF,PressureIn,WindDirection,WindDirectionDegrees,WindSpeedMPH,WindSpeedGustMPH,Humidity,HourlyPrecipIn,Conditions,Clouds,dailyrainin,SoftwareType,DateUTC
2013-03-08 00:00:00,21.2,19.9,30.16,NNW,341,0.0,0.0,95,0.00,,,0.00,meteohub,2013-03-08 05:00:00,
2013-03-08 00:01:00,21.2,19.9,30.16,NW,321,0.0,0.0,95,0.00,,,0.00,meteohub,2013-03-08 05:01:00,
2013-03-08 00:02:00,21.2,19.9,30.16,North,5,0.0,0.0,95,0.00,,,0.00,meteohub,2013-03-08 05:02:00,
2013-03-08 00:03:00,21.0,19.8,30.16,NNW,339,0.0,0.0,95,0.00,,,0.00,meteohub,2013-03-08 05:03:00,
2013-03-08 00:08:00,21.0,19.8,30.16,North,5,0.0,0.0,95,0.00,,,0.00,meteohub,2013-03-08 05:08:00,
2013-03-08 00:13:00,21.0,19.8,30.16,NNW,327,0.0,0.0,95,0.00,,,0.00,meteohub,2013-03-08 05:13:00,
2013-03-08 00:18:00,20.8,19.6,30.16,NW,325,0.0,0.0,95,0.00,,,0.00,meteohub,2013-03-08 05:18:00,
2013-03-08 00:23:00,20.8,19.6,30.16,East,86,0.0,0.0,95,0.00,,,0.00,meteohub,2013-03-08 05:23:00,
2013-03-08 00:29:00,20.8,19.6,30.16,East,86,0.0,0.0,95,0.00,,,0.00,meteohub,2013-03-08 05:29:00,
2013-03-08 00:34:00,20.7,19.4,30.16,East,86,0.0,0.0,95,0.00,,,0.00,meteohub,2013-03-08 05:34:00,
2013-03-08 00:39:00,20.7,19.4,30.16,East,86,0.0,0.0,95,0.00,,,0.00,meteohub,2013-03-08 05:39:00,
2013-03-08 00:45:00,20.7,19.4,30.16,East,86,0.0,0.0,95,0.00,,,0.00,meteohub,2013-03-08 05:45:00,
2013-03-08 00:50:00,20.7,19.4,30.16,East,86,0.0,0.0,95,0.00,,,0.00,meteohub,2013-03-08 05:50:00,
2013-03-08 00:55:00,20.7,19.4,30.17,East,86,0.0,0.0,95,0.00,,,0.00,meteohub,2013-03-08 05:55:00,
2013-03-08 01:00:00,20.7,19.4,30.17,East,86,0.0,0.0,95,0.00,,,0.00,meteohub,2013-03-08 06:00:00,
2013-03-08 01:06:00,20.5,19.2,30.17,East,86,0.0,0.0,95,0.00,,,0.00,meteohub,2013-03-08 06:06:00,
2013-03-08 01:11:00,20.5,19.2,30.17,East,86,0.0,0.0,95,0.00,,,0.00,meteohub,2013-03-08 06:11:00,
2013-03-08 01:17:00,20.5,19.2,30.17,East,86,0.0,0.0,95,0.00,,,0.00,meteohub,2013-03-08 06:17:00,
2013-03-08 01:22:00,20.5,19.2,30.17,East,86,0.0,0.0,95,0.00,,,0.00,meteohub,2013-03-08 06:22:00,
2013-03-08 01:27:00,20.3,19.0,30.17,East,86,0.0,0.0,95,0.00,,,0.00,meteohub,2013-03-08 06:27:00,
2013-03-08 01:32:00,20.3,19.0,30.17,East,86,0.0,0.0,95,0.00,,,0.00,meteohub,2013-03-08 06:32:00,
2013-03-08 01:37:00,20.3,19.0,30.17,East,86,0.0,0.0,95,0.00,,,0.00,meteohub,2013-03-08 06:37:00,
2013-03-08 01:43:00,20.1,18.9,30.17,East,86,0.0,0.0,95,0.00,,,0.00,meteohub,2013-03-08 06:43:00,
2013-03-08 01:48:00,20.1,18.9,30.16,East,86,0.0,0.0,95,0.00,,,0.00,meteohub,2013-03-08 06:48:00,
2013-03-08 01:53:00,20.1,18.9,30.16,East,86,0.0,0.0,95,0.00,,,0.00,meteohub,2013-03-08 06:53:00,
2013-03-08 01:58:00,19.9,18.7,30.16,East,86,0.0,0.0,95,0.00,,,0.00,meteohub,2013-03-08 06:58:00,
2013-03-08 02:04:00,19.9,18.7,30.16,East,86,0.0,0.0,95,0.00,,,0.00,meteohub,2013-03-08 07:04:00,
2013-03-08 02:09:00,19.9,18.7,30.16,East,86,0.0,0.0,95,0.00,,,0.00,meteohub,2013-03-08 07:09:00,
2013-03-08 02:14:00,19.9,18.7,30.16,East,86,0.0,0.0,95,0.00,,,0.00,meteohub,2013-03-08 07:14:00,
2013-03-08 02:20:00,19.9,18.7,30.16,East,86,0.0,0.0,95,0.00,,,0.00,meteohub,2013-03-08 07:20:00,
2013-03-08 02:25:00,19.9,18.7,30.16,East,86,0.0,0.0,95,0.00,,,0.00,meteohub,2013-03-08 07:25:00,
2013-03-08 02:31:00,19.9,18.7,30.16,East,86,0.0,0.0,95,0.00,,,0.00,meteohub,2013-03-08 07:31:00,
2013-03-08 02:36:00,19.9,18.7,30.16,East,86,0.0,0.0,95,0.00,,,0.00,meteohub,2013-03-08 07:36:00,
2013-03-08 02:42:00,19.8,18.5,30.16,East,86,0.0,0.0,95,0.00,,,0.00,meteohub,2013-03-08 07:42:00,
2013-03-08 02:47:00,19.8,18.5,30.15,East,86,0.0,0.0,95,0.00,,,0.00,meteohub,2013-03-08 07:47:00,
2013-03-08 02:52:00,19.8,18.5,30.15,East,86,0.0,0.0,95,0.00,,,0.00,meteohub,2013-03-08 07:52:00,
2013-03-08 02:57:00,19.8,18.5,30.15,East,86,0.0,0.0,95,0.00,,,0.00,meteohub,2013-03-08 07:57:00,
2013-03-08 03:02:00,19.8,18.5,30.15,East,86,0.0,0.0,95,0.00,,,0.00,meteohub,2013-03-08 08:02:00,
2013-03-08 03:07:00,19.8,18.5,30.15,East,86,0.0,0.0,95,0.00,,,0.00,meteohub,2013-03-08 08:07:00,
2013-03-08 03:12:00,19.8,18.5,30.15,East,86,0.0,0.0,95,0.00,,,0.00,meteohub,2013-03-08 08:12:00,
2013-03-08 03:17:00,19.8,18.5,30.14,East,86,0.0,0.0,95,0.00,,,0.00,meteohub,2013-03-08 08:17:00,
2013-03-08 03:22:00,19.8,18.5,30.14,East,86,0.0,0.0,95,0.00,,,0.00,meteohub,2013-03-08 08:22:00,
2013-03-08 03:27:00,19.8,18.5,30.14,East,86,0.0,0.0,95,0.00,,,0.00,meteohub,2013-03-08 08:27:00,
2013-03-08 03:33:00,19.8,18.5,30.14,East,86,0.0,0.0,95,0.00,,,0.00,meteohub,2013-03-08 08:33:00,
2013-03-08 03:38:00,19.6,18.3,30.14,East,86,0.0,0.0,95,0.00,,,0.00,meteohub,2013-03-08 08:38:00,
2013-03-08 03:43:00,19.6,18.3,30.14,East,86,0.0,0.0,95,0.00,,,0.00,meteohub,2013-03-08 08:43:00,
2013-03-08 03:49:00,19.6,18.3,30.14,East,86,0.0,0.0,95,0.00,,,0.00,meteohub,2013-03-08 08:49:00,
2013-03-08 03:54:00,19.6,18.3,30.14,East,86,0.0,0.0,95,0.00,,,0.00,meteohub,2013-03-08 08:54:00,
2013-03-08 04:00:00,19.6,18.3,30.14,East,86,0.0,0.0,95,0.00,,,0.00,meteohub,2013-03-08 09:00:00,
2013-03-08 04:05:00,19.6,18.3,30.13,East,86,0.0,0.0,95,0.00,,,0.00,meteohub,2013-03-08 09:05:00,
2013-03-08 04:11:00,19.6,18.3,30.14,East,86,0.0,0.0,95,0.00,,,0.00,meteohub,2013-03-08 09:11:00,
2013-03-08 04:16:00,19.6,18.3,30.13,East,86,0.0,0.0,95,0.00,,,0.00,meteohub,2013-03-08 09:16:00,
2013-03-08 04:22:00,19.6,18.3,30.13,East,86,0.0,0.0,95,0.00,,,0.00,meteohub,2013-03-08 09:22:00,
2013-03-08 04:27:00,19.6,18.3,30.12,NNW,338,0.0,0.0,95,0.00,,,0.00,meteohub,2013-03-08 09:27:00,
2013-03-08 04:32:00,19.6,18.1,30.13,NNW,339,0.0,0.0,94,0.00,,,0.00,meteohub,2013-03-08 09:32:00,
2013-03-08 04:37:00,19.6,18.1,30.13,NNW,336,0.0,0.0,94,0.00,,,0.00,meteohub,2013-03-08 09:37:00,
2013-03-08 04:42:00,19.4,18.0,30.13,NNW,330,0.0,0.0,94,0.00,,,0.00,meteohub,2013-03-08 09:42:00,
2013-03-08 04:47:00,19.4,18.0,30.13,NNW,333,0.0,0.0,94,0.00,,,0.00,meteohub,2013-03-08 09:47:00,
2013-03-08 04:52:00,19.2,17.8,30.13,NW,307,0.0,0.0,94,0.00,,,0.00,meteohub,2013-03-08 09:52:00,
2013-03-08 04:57:00,19.2,17.8,30.13,NNW,339,0.0,0.0,94,0.00,,,0.00,meteohub,2013-03-08 09:57:00,
2013-03-08 05:02:00,19.2,17.8,30.13,NW,326,0.0,0.0,94,0.00,,,0.00,meteohub,2013-03-08 10:02:00,
2013-03-08 05:07:00,19.2,18.0,30.13,NW,308,0.0,0.0,95,0.00,,,0.00,meteohub,2013-03-08 10:07:00,
2013-03-08 05:12:00,19.0,17.8,30.13,NW,326,0.0,0.0,95,0.00,,,0.00,meteohub,2013-03-08 10:12:00,
2013-03-08 05:17:00,19.0,17.8,30.14,NNW,335,0.0,0.0,95,0.00,,,0.00,meteohub,2013-03-08 10:17:00,
2013-03-08 05:22:00,19.0,17.6,30.13,NNW,341,0.0,0.0,94,0.00,,,0.00,meteohub,2013-03-08 10:22:00,
2013-03-08 05:27:00,19.0,17.6,30.13,NNW,338,0.0,0.0,94,0.00,,,0.00,meteohub,2013-03-08 10:27:00,
2013-03-08 05:32:00,19.0,17.6,30.13,NNW,328,0.0,0.0,94,0.00,,,0.00,meteohub,2013-03-08 10:32:00,
2013-03-08 05:37:00,18.9,17.4,30.14,North,349,0.0,0.0,94,0.00,,,0.00,meteohub,2013-03-08 10:37:00,
2013-03-08 05:42:00,18.9,17.6,30.14,NNW,336,0.0,0.0,95,0.00,,,0.00,meteohub,2013-03-08 10:42:00,
2013-03-08 05:47:00,18.9,17.4,30.14,NNW,333,0.0,0.0,94,0.00,,,0.00,meteohub,2013-03-08 10:47:00,
2013-03-08 05:52:00,18.9,17.4,30.14,NNW,340,0.0,0.0,94,0.00,,,0.00,meteohub,2013-03-08 10:52:00,
2013-03-08 05:57:00,18.9,17.4,30.14,NNW,332,0.0,0.0,94,0.00,,,0.00,meteohub,2013-03-08 10:57:00,
2013-03-08 06:02:00,18.9,17.6,30.14,NE,34,0.0,0.0,95,0.00,,,0.00,meteohub,2013-03-08 11:02:00,
2013-03-08 06:07:00,18.9,17.6,30.15,NNW,348,0.0,0.0,95,0.00,,,0.00,meteohub,2013-03-08 11:07:00,
2013-03-08 06:12:00,18.9,17.4,30.14,NNW,335,0.0,0.0,94,0.00,,,0.00,meteohub,2013-03-08 11:12:00,
2013-03-08 06:17:00,18.9,17.6,30.15,North,5,0.0,0.0,95,0.00,,,0.00,meteohub,2013-03-08 11:17:00,
2013-03-08 06:22:00,18.9,17.4,30.15,NNW,340,0.0,0.0,94,0.00,,,0.00,meteohub,2013-03-08 11:22:00,
2013-03-08 06:27:00,18.9,17.4,30.14,NW,321,0.0,0.0,94,0.00,,,0.00,meteohub,2013-03-08 11:27:00,
2013-03-08 06:32:00,18.9,17.4,30.14,NNW,346,0.0,0.0,94,0.00,,,0.00,meteohub,2013-03-08 11:32:00,
2013-03-08 06:37:00,18.9,17.4,30.14,NNW,329,0.0,0.0,94,0.00,,,0.00,meteohub,2013-03-08 11:37:00,
2013-03-08 06:42:00,18.9,17.6,30.14,NW,319,0.0,0.0,95,0.00,,,0.00,meteohub,2013-03-08 11:42:00,
2013-03-08 06:47:00,18.9,17.6,30.15,NNW,330,0.0,0.0,95,0.00,,,0.00,meteohub,2013-03-08 11:47:00,
2013-03-08 06:52:00,18.9,17.6,30.15,NW,309,0.0,0.0,95,0.00,,,0.00,meteohub,2013-03-08 11:52:00,
2013-03-08 06:57:00,19.0,17.8,30.15,NNW,342,0.0,0.0,95,0.00,,,0.00,meteohub,2013-03-08 11:57:00,
2013-03-08 07:03:00,19.0,17.8,30.15,NW,325,0.0,0.0,95,0.00,,,0.00,meteohub,2013-03-08 12:03:00,
2013-03-08 07:08:00,19.0,17.8,30.15,NNW,336,0.0,0.0,95,0.00,,,0.00,meteohub,2013-03-08 12:08:00,
2013-03-08 07:13:00,19.0,17.8,30.15,NNW,333,0.0,0.0,95,0.00,,,0.00,meteohub,2013-03-08 12:13:00,
2013-03-08 07:19:00,19.0,17.8,30.16,NNW,329,0.0,0.0,95,0.00,,,0.00,meteohub,2013-03-08 12:19:00,
2013-03-08 07:24:00,19.0,17.8,30.16,NNW,329,0.0,0.0,95,0.00,,,0.00,meteohub,2013-03-08 12:24:00,
2013-03-08 07:29:00,19.0,17.8,30.16,NW,321,0.0,0.0,95,0.00,,,0.00,meteohub,2013-03-08 12:29:00,
2013-03-08 07:35:00,19.0,17.8,30.16,NNW,346,0.0,0.0,95,0.00,,,0.00,meteohub,2013-03-08 12:35:00,
2013-03-08 07:40:00,19.0,17.8,30.16,NNW,331,0.0,0.0,95,0.00,,,0.00,meteohub,2013-03-08 12:40:00,
2013-03-08 07:45:00,19.0,17.8,30.16,NNW,340,0.0,0.0,95,0.00,,,0.00,meteohub,2013-03-08 12:45:00,
2013-03-08 07:51:00,19.2,18.0,30.17,NNW,346,0.0,0.0,95,0.00,,,0.00,meteohub,2013-03-08 12:51:00,
2013-03-08 07:57:00,19.2,17.8,30.17,NNW,330,0.0,0.0,94,0.00,,,0.00,meteohub,2013-03-08 12:57:00,
2013-03-08 08:02:00,19.2,18.0,30.17,NNW,341,0.0,0.0,95,0.00,,,0.00,meteohub,2013-03-08 13:02:00,
2013-03-08 08:07:00,19.2,18.0,30.17,NNW,339,0.0,0.0,95,0.00,,,0.00,meteohub,2013-03-08 13:07:00,
2013-03-08 08:12:00,19.2,18.0,30.17,NNW,344,0.0,0.0,95,0.00,,,0.00,meteohub,2013-03-08 13:12:00,
2013-03-08 08:17:00,19.4,18.1,30.17,NNW,344,0.0,0.0,95,0.00,,,0.00,meteohub,2013-03-08 13:17:00,
2013-03-08 08:22:00,19.4,18.1,30.17,NNW,332,0.0,0.0,95,0.00,,,0.00,meteohub,2013-03-08 13:22:00,
2013-03-08 08:27:00,19.6,18.3,30.17,NNW,339,0.0,0.0,95,0.00,,,0.00,meteohub,2013-03-08 13:27:00,
2013-03-08 08:32:00,19.6,18.3,30.17,North,355,0.0,0.0,95,0.00,,,0.00,meteohub,2013-03-08 13:32:00,
2013-03-08 08:37:00,19.6,18.3,30.17,NNW,337,0.0,0.0,95,0.00,,,0.00,meteohub,2013-03-08 13:37:00,
2013-03-08 08:42:00,19.6,18.3,30.17,NNW,336,0.0,0.0,95,0.00,,,0.00,meteohub,2013-03-08 13:42:00,
2013-03-08 08:47:00,19.6,18.3,30.17,North,355,0.0,0.0,95,0.00,,,0.00,meteohub,2013-03-08 13:47:00,
2013-03-08 08:52:00,19.6,18.3,30.17,NW,314,0.0,0.0,95,0.00,,,0.00,meteohub,2013-03-08 13:52:00,
2013-03-08 08:57:00,19.8,18.5,30.17,NNW,337,0.0,0.0,95,0.00,,,0.00,meteohub,2013-03-08 13:57:00,
2013-03-08 09:02:00,19.8,18.5,30.17,NNW,328,0.0,0.0,95,0.00,,,0.00,meteohub,2013-03-08 14:02:00,
2013-03-08 09:07:00,19.9,18.7,30.17,NNE,23,0.0,0.0,95,0.00,,,0.00,meteohub,2013-03-08 14:07:00,
2013-03-08 09:12:00,19.9,18.7,30.17,NNW,333,0.0,0.0,95,0.00,,,0.00,meteohub,2013-03-08 14:12:00,
2013-03-08 09:17:00,19.9,18.7,30.17,NW,304,0.0,0.0,95,0.00,,,0.00,meteohub,2013-03-08 14:17:00,
2013-03-08 09:22:00,20.1,18.9,30.17,NNW,328,0.0,0.0,95,0.00,,,0.00,meteohub,2013-03-08 14:22:00,
2013-03-08 09:27:00,20.3,19.0,30.18,NE,38,0.0,0.0,95,0.00,,,0.00,meteohub,2013-03-08 14:27:00,
2013-03-08 09:33:00,20.5,19.2,30.19,North,349,0.0,0.0,95,0.00,,,0.00,meteohub,2013-03-08 14:33:00,
2013-03-08 09:38:00,20.5,19.2,30.19,East,85,0.0,0.0,95,0.00,,,0.00,meteohub,2013-03-08 14:38:00,
2013-03-08 09:43:00,20.7,19.4,30.18,East,91,0.0,0.0,95,0.00,,,0.00,meteohub,2013-03-08 14:43:00,
2013-03-08 09:48:00,20.7,19.4,30.18,North,355,0.0,0.0,95,0.00,,,0.00,meteohub,2013-03-08 14:48:00,
2013-03-08 09:53:00,20.8,19.6,30.19,NW,321,0.0,0.0,95,0.00,,,0.00,meteohub,2013-03-08 14:53:00,
2013-03-08 09:58:00,21.0,19.8,30.19,NNW,336,0.0,0.0,95,0.00,,,0.00,meteohub,2013-03-08 14:58:00,
2013-03-08 10:04:00,21.2,19.9,30.19,NW,326,0.0,0.0,95,0.00,,,0.00,meteohub,2013-03-08 15:04:00,
2013-03-08 10:09:00,21.4,20.1,30.19,North,355,0.0,0.0,95,0.00,,,0.00,meteohub,2013-03-08 15:09:00,
2013-03-08 10:15:00,21.6,20.3,30.19,NW,308,0.0,0.0,95,0.00,,,0.00,meteohub,2013-03-08 15:15:00,
2013-03-08 10:20:00,21.6,20.3,30.19,NW,319,0.0,0.0,95,0.00,,,0.00,meteohub,2013-03-08 15:20:00,
2013-03-08 10:26:00,21.7,20.5,30.20,NW,315,0.0,0.0,95,0.00,,,0.00,meteohub,2013-03-08 15:26:00,
2013-03-08 10:31:00,21.7,20.5,30.20,NW,320,0.0,0.0,95,0.00,,,0.00,meteohub,2013-03-08 15:31:00,
2013-03-08 10:37:00,21.9,20.7,30.20,NNW,344,0.0,0.0,95,0.00,,,0.00,meteohub,2013-03-08 15:37:00,
2013-03-08 10:42:00,21.9,21.0,30.20,NNW,335,0.0,0.0,96,0.00,,,0.00,meteohub,2013-03-08 15:42:00,
2013-03-08 10:48:00,21.9,21.0,30.21,NNW,327,0.0,0.0,96,0.00,,,0.00,meteohub,2013-03-08 15:48:00,
2013-03-08 10:53:00,22.1,21.2,30.21,North,355,0.0,0.0,96,0.00,,,0.00,meteohub,2013-03-08 15:53:00,
2013-03-08 10:58:00,22.3,21.0,30.21,NNW,344,0.0,0.0,95,0.00,,,0.00,meteohub,2013-03-08 15:58:00,
2013-03-08 11:04:00,22.3,21.0,30.21,NNW,346,0.0,0.0,95,0.00,,,0.00,meteohub,2013-03-08 16:04:00,
2013-03-08 11:09:00,22.3,21.0,30.21,NNW,328,0.0,0.0,95,0.00,,,0.00,meteohub,2013-03-08 16:09:00,
2013-03-08 11:14:00,22.3,21.4,30.22,North,355,0.0,0.0,96,0.00,,,0.00,meteohub,2013-03-08 16:14:00,
2013-03-08 11:20:00,22.5,21.6,30.22,NNW,330,0.0,0.0,96,0.00,,,0.00,meteohub,2013-03-08 16:20:00,
2013-03-08 11:25:00,22.5,21.6,30.22,North,355,0.0,0.0,96,0.00,,,0.00,meteohub,2013-03-08 16:25:00,
2013-03-08 11:30:00,22.5,21.6,30.22,NW,308,0.0,0.0,96,0.00,,,0.00,meteohub,2013-03-08 16:30:00,
2013-03-08 11:35:00,22.6,21.7,30.22,NNW,337,0.0,0.0,96,0.00,,,0.00,meteohub,2013-03-08 16:35:00,
2013-03-08 11:40:00,22.8,21.9,30.22,NNW,339,0.0,0.0,96,0.00,,,0.00,meteohub,2013-03-08 16:40:00,
2013-03-08 11:46:00,22.8,21.9,30.22,NNW,327,0.0,0.0,96,0.00,,,0.00,meteohub,2013-03-08 16:46:00,
2013-03-08 11:51:00,23.0,22.1,30.22,North,350,0.0,0.0,96,0.00,,,0.00,meteohub,2013-03-08 16:51:00,
2013-03-08 11:56:00,23.0,22.1,30.22,NNW,327,0.0,0.0,96,0.00,,,0.00,meteohub,2013-03-08 16:56:00,
2013-03-08 12:02:00,23.0,22.1,30.22,NW,319,0.0,0.0,96,0.00,,,0.00,meteohub,2013-03-08 17:02:00,
2013-03-08 12:07:00,23.2,22.3,30.22,NNW,338,0.0,0.0,96,0.00,,,0.00,meteohub,2013-03-08 17:07:00,
2013-03-08 12:12:00,23.2,22.3,30.22,NNW,340,0.0,0.0,96,0.00,,,0.00,meteohub,2013-03-08 17:12:00,
2013-03-08 12:17:00,23.4,22.5,30.22,NNW,340,0.0,0.0,96,0.00,,,0.00,meteohub,2013-03-08 17:17:00,
2013-03-08 12:23:00,23.4,22.5,30.22,NNW,329,0.0,0.0,96,0.00,,,0.00,meteohub,2013-03-08 17:23:00,
2013-03-08 12:28:00,23.5,22.6,30.22,NW,319,0.0,0.0,96,0.00,,,0.00,meteohub,2013-03-08 17:28:00,
2013-03-08 12:33:00,23.5,22.6,30.22,NNW,335,0.0,0.0,96,0.00,,,0.00,meteohub,2013-03-08 17:33:00,
2013-03-08 12:38:00,23.7,22.8,30.22,NNW,332,0.0,0.0,96,0.00,,,0.00,meteohub,2013-03-08 17:38:00,
2013-03-08 12:44:00,23.9,23.0,30.22,NW,325,0.0,0.0,96,0.00,,,0.00,meteohub,2013-03-08 17:44:00,
2013-03-08 12:50:00,24.1,23.2,30.22,NW,321,0.0,0.0,96,0.00,,,0.00,meteohub,2013-03-08 17:50:00,
2013-03-08 12:57:00,24.3,23.4,30.22,NNW,347,0.0,0.0,96,0.00,,,0.00,meteohub,2013-03-08 17:57:00,
2013-03-08 13:02:00,24.4,23.5,30.22,NW,320,0.0,0.0,96,0.00,,,0.00,meteohub,2013-03-08 18:02:00,
2013-03-08 13:08:00,24.8,23.9,30.22,NW,320,0.0,0.0,96,0.00,,,0.00,meteohub,2013-03-08 18:08:00,
2013-03-08 13:16:00,25.0,24.1,30.22,NNW,332,0.0,0.0,96,0.00,,,0.00,meteohub,2013-03-08 18:16:00,
2013-03-08 13:22:00,25.3,24.4,30.22,NNW,348,0.0,0.0,96,0.00,,,0.00,meteohub,2013-03-08 18:22:00,
2013-03-08 13:27:00,25.3,24.4,30.22,North,351,0.0,0.0,96,0.00,,,0.00,meteohub,2013-03-08 18:27:00,
2013-03-08 13:32:00,25.3,24.6,30.23,North,351,0.0,0.0,97,0.00,,,0.00,meteohub,2013-03-08 18:32:00,
2013-03-08 13:37:00,25.5,24.8,30.22,NW,321,0.0,0.0,97,0.00,,,0.00,meteohub,2013-03-08 18:37:00,
2013-03-08 13:42:00,26.1,25.3,30.23,NNW,341,0.0,0.0,97,0.00,,,0.00,meteohub,2013-03-08 18:42:00,
2013-03-08 13:47:00,26.2,25.5,30.23,NW,319,0.0,0.0,97,0.00,,,0.00,meteohub,2013-03-08 18:47:00,
2013-03-08 13:52:00,26.6,25.9,30.23,NNW,327,0.0,0.0,97,0.00,,,0.00,meteohub,2013-03-08 18:52:00,
2013-03-08 13:57:00,27.0,26.2,30.23,NNW,329,0.0,0.0,97,0.00,,,0.00,meteohub,2013-03-08 18:57:00,
2013-03-08 14:02:00,27.1,26.4,30.24,North,355,0.0,0.0,97,0.00,,,0.00,meteohub,2013-03-08 19:02:00,
2013-03-08 14:07:00,27.3,26.6,30.24,NNW,338,0.0,0.0,97,0.00,,,0.00,meteohub,2013-03-08 19:07:00,
2013-03-08 14:13:00,27.7,27.0,30.24,NW,311,0.0,0.0,97,0.00,,,0.00,meteohub,2013-03-08 19:13:00,
2013-03-08 14:18:00,27.9,27.1,30.24,North,0,0.0,0.0,97,0.00,,,0.00,meteohub,2013-03-08 19:18:00,
2013-03-08 14:24:00,28.0,27.5,30.24,NNW,327,0.0,0.0,98,0.00,,,0.00,meteohub,2013-03-08 19:24:00,
2013-03-08 14:29:00,28.4,27.7,30.25,NNW,344,0.0,0.0,97,0.00,,,0.00,meteohub,2013-03-08 19:29:00,
2013-03-08 14:35:00,28.8,28.2,30.24,North,355,0.0,0.0,98,0.00,,,0.00,meteohub,2013-03-08 19:35:00,
2013-03-08 14:41:00,28.9,28.4,30.25,NNW,329,0.0,0.0,98,0.00,,,0.00,meteohub,2013-03-08 19:41:00,
2013-03-08 14:46:00,29.1,28.6,30.25,NE,43,0.0,0.0,98,0.00,,,0.00,meteohub,2013-03-08 19:46:00,
2013-03-08 14:51:00,29.5,28.9,30.25,NW,325,0.0,0.0,98,0.00,,,0.00,meteohub,2013-03-08 19:51:00,
2013-03-08 14:56:00,29.7,29.1,30.25,NNE,12,0.0,0.0,98,0.00,,,0.00,meteohub,2013-03-08 19:56:00,
2013-03-08 15:01:00,29.7,29.1,30.25,NE,43,0.0,0.0,98,0.00,,,0.00,meteohub,2013-03-08 20:01:00,
2013-03-08 15:06:00,29.8,29.3,30.26,NNE,17,0.0,0.0,98,0.00,,,0.00,meteohub,2013-03-08 20:06:00,
2013-03-08 15:11:00,29.8,29.3,30.26,NNE,28,0.0,0.0,98,0.00,,,0.00,meteohub,2013-03-08 20:11:00,
2013-03-08 15:17:00,30.0,29.5,30.26,ESE,109,0.0,0.0,98,0.00,,,0.00,meteohub,2013-03-08 20:17:00,
2013-03-08 15:22:00,30.0,29.5,30.26,NNW,339,0.0,0.0,98,0.00,,,0.00,meteohub,2013-03-08 20:22:00,
2013-03-08 15:27:00,30.2,29.7,30.27,WNW,300,0.0,0.0,98,0.00,,,0.00,meteohub,2013-03-08 20:27:00,
2013-03-08 15:32:00,30.4,29.8,30.27,WNW,300,0.0,0.0,98,0.00,,,0.00,meteohub,2013-03-08 20:32:00,
2013-03-08 15:37:00,30.4,29.8,30.26,NNW,333,0.0,0.0,98,0.00,,,0.00,meteohub,2013-03-08 20:37:00,
2013-03-08 15:43:00,30.4,29.8,30.26,NNW,342,0.0,0.0,98,0.00,,,0.00,meteohub,2013-03-08 20:43:00,
2013-03-08 15:49:00,30.6,30.0,30.25,North,0,0.0,0.0,98,0.00,,,0.00,meteohub,2013-03-08 20:49:00,
2013-03-08 15:54:00,30.6,30.0,30.25,NNW,346,0.0,0.0,98,0.00,,,0.00,meteohub,2013-03-08 20:54:00,
2013-03-08 15:59:00,30.4,29.8,30.25,NNW,342,0.0,0.0,98,0.00,,,0.00,meteohub,2013-03-08 20:59:00,
2013-03-08 16:04:00,30.0,29.5,30.25,NW,325,0.0,0.0,98,0.00,,,0.00,meteohub,2013-03-08 21:04:00,
2013-03-08 16:10:00,29.8,29.3,30.25,ENE,69,0.0,0.0,98,0.00,,,0.00,meteohub,2013-03-08 21:10:00,
2013-03-08 16:15:00,29.5,28.9,30.26,NNW,333,0.0,0.0,98,0.00,,,0.00,meteohub,2013-03-08 21:15:00,
2013-03-08 16:20:00,29.5,28.9,30.27,NW,317,0.0,0.0,98,0.00,,,0.00,meteohub,2013-03-08 21:20:00,
2013-03-08 16:26:00,29.7,29.1,30.27,East,88,0.0,0.0,98,0.00,,,0.00,meteohub,2013-03-08 21:26:00,
2013-03-08 16:31:00,29.7,29.1,30.27,NNW,336,0.0,0.0,98,0.00,,,0.00,meteohub,2013-03-08 21:31:00,
2013-03-08 16:36:00,29.8,29.3,30.27,ENE,59,0.0,0.0,98,0.00,,,0.00,meteohub,2013-03-08 21:36:00,
2013-03-08 16:41:00,29.7,29.1,30.27,ESE,102,0.0,0.0,98,0.00,,,0.00,meteohub,2013-03-08 21:41:00,
2013-03-08 16:47:00,29.8,29.3,30.28,NW,313,0.0,0.0,98,0.00,,,0.00,meteohub,2013-03-08 21:47:00,
2013-03-08 16:52:00,29.7,29.1,30.28,NW,323,0.0,0.0,98,0.00,,,0.00,meteohub,2013-03-08 21:52:00,
2013-03-08 16:57:00,29.7,29.1,30.28,NNW,329,0.0,0.0,98,0.00,,,0.00,meteohub,2013-03-08 21:57:00,
2013-03-08 17:02:00,29.5,28.9,30.28,NNW,333,0.0,0.0,98,0.00,,,0.00,meteohub,2013-03-08 22:02:00,
2013-03-08 17:07:00,29.3,28.8,30.28,NW,321,0.0,0.0,98,0.00,,,0.00,meteohub,2013-03-08 22:07:00,
2013-03-08 17:13:00,29.3,28.8,30.29,NW,319,0.0,0.0,98,0.00,,,0.00,meteohub,2013-03-08 22:13:00,
2013-03-08 17:18:00,29.1,28.6,30.29,NW,326,0.0,0.0,98,0.00,,,0.00,meteohub,2013-03-08 22:18:00,
2013-03-08 17:24:00,28.9,28.4,30.29,NNW,333,0.0,0.0,98,0.00,,,0.00,meteohub,2013-03-08 22:24:00,
2013-03-08 17:29:00,28.6,27.9,30.29,North,355,0.0,0.0,97,0.00,,,0.00,meteohub,2013-03-08 22:29:00,
2013-03-08 17:35:00,28.2,27.7,30.30,NW,321,0.0,0.0,98,0.00,,,0.00,meteohub,2013-03-08 22:35:00,
2013-03-08 17:40:00,28.0,27.5,30.30,NNW,331,0.0,0.0,98,0.00,,,0.00,meteohub,2013-03-08 22:40:00,
2013-03-08 17:45:00,27.7,27.0,30.30,NW,323,0.0,0.0,97,0.00,,,0.00,meteohub,2013-03-08 22:45:00,
2013-03-08 17:50:00,27.1,26.4,30.30,NW,323,0.0,0.0,97,0.00,,,0.00,meteohub,2013-03-08 22:50:00,
2013-03-08 17:55:00,27.0,26.2,30.30,NW,326,0.0,0.0,97,0.00,,,0.00,meteohub,2013-03-08 22:55:00,
2013-03-08 18:01:00,26.6,25.9,30.31,NW,326,0.0,0.0,97,0.00,,,0.00,meteohub,2013-03-08 23:01:00,
2013-03-08 18:06:00,26.4,25.7,30.31,NW,319,0.0,0.0,97,0.00,,,0.00,meteohub,2013-03-08 23:06:00,
2013-03-08 18:11:00,26.1,25.3,30.31,North,350,0.0,0.0,97,0.00,,,0.00,meteohub,2013-03-08 23:11:00,
2013-03-08 18:16:00,26.1,25.3,30.31,North,355,0.0,0.0,97,0.00,,,0.00,meteohub,2013-03-08 23:16:00,
2013-03-08 18:21:00,25.9,25.2,30.32,NW,316,0.0,0.0,97,0.00,,,0.00,meteohub,2013-03-08 23:21:00,
2013-03-08 18:26:00,25.7,25.0,30.32,NNW,332,0.0,0.0,97,0.00,,,0.00,meteohub,2013-03-08 23:26:00,
2013-03-08 18:32:00,25.5,24.8,30.33,NNW,346,0.0,0.0,97,0.00,,,0.00,meteohub,2013-03-08 23:32:00,
2013-03-08 18:37:00,25.3,24.6,30.32,NNW,329,0.0,0.0,97,0.00,,,0.00,meteohub,2013-03-08 23:37:00,
2013-03-08 18:42:00,25.3,24.4,30.33,NNW,332,0.0,0.0,96,0.00,,,0.00,meteohub,2013-03-08 23:42:00,
2013-03-08 18:47:00,25.2,24.3,30.32,NW,323,0.0,0.0,96,0.00,,,0.00,meteohub,2013-03-08 23:47:00,
2013-03-08 18:52:00,25.2,24.3,30.33,NW,315,0.0,0.0,96,0.00,,,0.00,meteohub,2013-03-08 23:52:00,
2013-03-08 18:57:00,25.0,24.1,30.33,NW,325,0.0,0.0,96,0.00,,,0.00,meteohub,2013-03-08 23:57:00,
2013-03-08 19:02:00,25.0,24.1,30.33,NW,315,0.0,0.0,96,0.00,,,0.00,meteohub,2013-03-09 00:02:00,
2013-03-08 19:08:00,24.8,23.9,30.33,NNW,339,0.0,0.0,96,0.00,,,0.00,meteohub,2013-03-09 00:08:00,
2013-03-08 19:13:00,24.8,23.9,30.33,NW,319,0.0,0.0,96,0.00,,,0.00,meteohub,2013-03-09 00:13:00,
2013-03-08 19:19:00,24.8,23.9,30.33,NW,322,0.0,0.0,96,0.00,,,0.00,meteohub,2013-03-09 00:19:00,
2013-03-08 19:24:00,24.6,23.7,30.34,NNW,327,0.0,0.0,96,0.00,,,0.00,meteohub,2013-03-09 00:24:00,
2013-03-08 19:29:00,24.6,23.7,30.34,NW,314,0.0,0.0,96,0.00,,,0.00,meteohub,2013-03-09 00:29:00,
2013-03-08 19:34:00,24.6,23.7,30.34,NNW,333,0.0,0.0,96,0.00,,,0.00,meteohub,2013-03-09 00:34:00,
2013-03-08 19:40:00,24.6,23.7,30.35,NNW,327,0.0,0.0,96,0.00,,,0.00,meteohub,2013-03-09 00:40:00,
2013-03-08 19:45:00,24.6,23.7,30.34,NNW,333,0.0,0.0,96,0.00,,,0.00,meteohub,2013-03-09 00:45:00,
2013-03-08 19:50:00,24.4,23.5,30.35,NW,312,0.0,0.0,96,0.00,,,0.00,meteohub,2013-03-09 00:50:00,
2013-03-08 19:55:00,24.4,23.5,30.35,NNW,345,0.0,0.0,96,0.00,,,0.00,meteohub,2013-03-09 00:55:00,
2013-03-08 20:00:00,24.4,23.5,30.35,NNW,330,0.0,0.0,96,0.00,,,0.00,meteohub,2013-03-09 01:00:00,
2013-03-08 20:05:00,24.4,23.5,30.35,NNW,334,0.0,0.0,96,0.00,,,0.00,meteohub,2013-03-09 01:05:00,
2013-03-08 20:11:00,24.4,23.5,30.35,NW,321,0.0,0.0,96,0.00,,,0.00,meteohub,2013-03-09 01:11:00,
2013-03-08 20:16:00,24.4,23.5,30.35,NNW,336,0.0,0.0,96,0.00,,,0.00,meteohub,2013-03-09 01:16:00,
2013-03-08 20:21:00,24.4,23.5,30.35,NW,313,0.0,0.0,96,0.00,,,0.00,meteohub,2013-03-09 01:21:00,
2013-03-08 20:27:00,24.4,23.5,30.35,NW,311,0.0,1.0,96,0.00,,,0.00,meteohub,2013-03-09 01:27:00,
2013-03-08 20:32:00,24.4,23.5,30.35,NW,306,0.0,1.0,96,0.00,,,0.00,meteohub,2013-03-09 01:32:00,
2013-03-08 20:37:00,24.4,23.5,30.35,NW,306,0.0,1.0,96,0.00,,,0.00,meteohub,2013-03-09 01:37:00,
2013-03-08 20:42:00,24.4,23.5,30.36,NW,323,0.0,0.0,96,0.00,,,0.00,meteohub,2013-03-09 01:42:00,
2013-03-08 20:47:00,24.4,23.5,30.36,NW,307,0.0,1.0,96,0.00,,,0.00,meteohub,2013-03-09 01:47:00,
2013-03-08 20:52:00,24.3,23.4,30.36,NW,324,0.0,1.0,96,0.00,,,0.00,meteohub,2013-03-09 01:52:00,
2013-03-08 20:57:00,24.3,23.4,30.36,NW,315,0.0,1.0,96,0.00,,,0.00,meteohub,2013-03-09 01:57:00,
2013-03-08 21:02:00,24.3,23.4,30.36,NNW,338,0.0,0.0,96,0.00,,,0.00,meteohub,2013-03-09 02:02:00,
2013-03-08 21:07:00,24.3,23.4,30.36,NW,312,0.0,0.0,96,0.00,,,0.00,meteohub,2013-03-09 02:07:00,
2013-03-08 21:13:00,24.3,23.4,30.36,NW,317,0.0,0.0,96,0.00,,,0.00,meteohub,2013-03-09 02:13:00,
2013-03-08 21:18:00,24.3,23.4,30.37,NW,325,0.0,0.0,96,0.00,,,0.00,meteohub,2013-03-09 02:18:00,
2013-03-08 21:23:00,24.1,23.2,30.37,NNW,341,0.0,0.0,96,0.00,,,0.00,meteohub,2013-03-09 02:23:00,
2013-03-08 21:28:00,24.1,23.2,30.37,NNW,332,0.0,0.0,96,0.00,,,0.00,meteohub,2013-03-09 02:28:00,
2013-03-08 21:33:00,24.1,23.2,30.37,NNW,339,0.0,0.0,96,0.00,,,0.00,meteohub,2013-03-09 02:33:00,
2013-03-08 21:39:00,24.1,23.2,30.37,NW,325,0.0,0.0,96,0.00,,,0.00,meteohub,2013-03-09 02:39:00,
2013-03-08 21:44:00,23.9,23.0,30.36,NNW,336,0.0,0.0,96,0.00,,,0.00,meteohub,2013-03-09 02:44:00,
2013-03-08 21:49:00,23.9,23.0,30.37,NW,317,0.0,0.0,96,0.00,,,0.00,meteohub,2013-03-09 02:49:00,
2013-03-08 21:54:00,23.7,22.8,30.37,NW,319,0.0,0.0,96,0.00,,,0.00,meteohub,2013-03-09 02:54:00,
2013-03-08 21:59:00,23.7,22.8,30.37,NNW,339,0.0,0.0,96,0.00,,,0.00,meteohub,2013-03-09 02:59:00,
2013-03-08 22:05:00,23.7,22.8,30.37,NW,325,0.0,0.0,96,0.00,,,0.00,meteohub,2013-03-09 03:05:00,
2013-03-08 22:10:00,23.5,22.6,30.37,NNW,336,0.0,0.0,96,0.00,,,0.00,meteohub,2013-03-09 03:10:00,
2013-03-08 22:15:00,23.5,22.6,30.37,NW,319,0.0,0.0,96,0.00,,,0.00,meteohub,2013-03-09 03:15:00,
2013-03-08 22:20:00,23.4,22.5,30.37,NNW,327,0.0,0.0,96,0.00,,,0.00,meteohub,2013-03-09 03:20:00,
2013-03-08 22:26:00,23.4,22.5,30.37,NW,325,0.0,0.0,96,0.00,,,0.00,meteohub,2013-03-09 03:26:00,
2013-03-08 22:31:00,23.4,22.5,30.37,NNW,340,0.0,0.0,96,0.00,,,0.00,meteohub,2013-03-09 03:31:00,
2013-03-08 22:36:00,23.2,22.3,30.37,NNW,331,0.0,0.0,96,0.00,,,0.00,meteohub,2013-03-09 03:36:00,
2013-03-08 22:41:00,23.2,22.3,30.37,NNW,331,0.0,0.0,96,0.00,,,0.00,meteohub,2013-03-09 03:41:00,
2013-03-08 22:47:00,23.2,22.3,30.37,NNW,334,0.0,0.0,96,0.00,,,0.00,meteohub,2013-03-09 03:47:00,
2013-03-08 22:52:00,23.4,22.5,30.37,NNW,348,0.0,0.0,96,0.00,,,0.00,meteohub,2013-03-09 03:52:00,
2013-03-08 22:57:00,23.4,22.5,30.37,NNW,332,0.0,0.0,96,0.00,,,0.00,meteohub,2013-03-09 03:57:00,
2013-03-08 23:02:00,23.4,22.5,30.37,NW,315,0.0,0.0,96,0.00,,,0.00,meteohub,2013-03-09 04:02:00,
2013-03-08 23:07:00,23.2,22.3,30.37,NNW,331,0.0,0.0,96,0.00,,,0.00,meteohub,2013-03-09 04:07:00,
2013-03-08 23:12:00,23.2,22.3,30.37,NNW,328,0.0,0.0,96,0.00,,,0.00,meteohub,2013-03-09 04:12:00,
2013-03-08 23:17:00,23.2,22.3,30.36,NNW,344,0.0,0.0,96,0.00,,,0.00,meteohub,2013-03-09 04:17:00,
2013-03-08 23:22:00,23.4,22.5,30.36,NNW,348,0.0,0.0,96,0.00,,,0.00,meteohub,2013-03-09 04:22:00,
2013-03-08 23:27:00,23.4,22.5,30.36,NNW,331,0.0,0.0,96,0.00,,,0.00,meteohub,2013-03-09 04:27:00,
2013-03-08 23:32:00,23.5,22.6,30.36,NNW,329,0.0,0.0,96,0.00,,,0.00,meteohub,2013-03-09 04:32:00,
2013-03-08 23:37:00,23.4,22.5,30.36,NW,311,0.0,0.0,96,0.00,,,0.00,meteohub,2013-03-09 04:37:00,
2013-03-08 23:42:00,23.4,22.5,30.36,NW,309,0.0,0.0,96,0.00,,,0.00,meteohub,2013-03-09 04:42:00,
2013-03-08 23:47:00,23.2,22.3,30.36,NW,309,0.0,0.0,96,0.00,,,0.00,meteohub,2013-03-09 04:47:00,
2013-03-08 23:53:00,23.2,22.3,30.37,NNW,333,0.0,0.0,96,0.00,,,0.00,meteohub,2013-03-09 04:53:00,
2013-03-08 23:58:00,23.2,22.3,30.37,NW,316,0.0,0.0,96,0.00,,,0.00,meteohub,2013-03-09 04:58:00,